TimePDT,TemperatureF,Dew PointF,Humidity,Sea Level PressureIn,VisibilityMPH,Wind Direction,Wind SpeedMPH,Gust SpeedMPH,PrecipitationIn,Events,Conditions,WindDirDegrees,DateUTC
12:53 AM,53.1,25.0,34,30.02,10.0,NNW,13.8,21.9,N/A,,Clear,330,2013-03-22 07:53:00
1:53 AM,52.0,26.1,37,30.03,10.0,NNW,17.3,24.2,N/A,,Clear,330,2013-03-22 08:53:00
2:53 AM,50.0,26.1,39,30.04,10.0,NW,16.1,-,N/A,,Clear,320,2013-03-22 09:53:00
3:53 AM,48.9,24.1,38,30.02,10.0,NNW,18.4,28.8,N/A,,Clear,340,2013-03-22 10:53:00
4:53 AM,48.9,21.9,35,30.03,10.0,NNW,16.1,26.5,N/A,,Clear,330,2013-03-22 11:53:00
5:53 AM,48.0,21.9,36,30.04,10.0,NNW,18.4,28.8,N/A,,Clear,340,2013-03-22 12:53:00
6:53 AM,46.9,21.0,36,30.05,10.0,NNW,17.3,25.3,N/A,,Clear,330,2013-03-22 13:53:00
7:53 AM,46.0,23.0,40,30.07,10.0,NW,12.7,20.7,N/A,,Clear,310,2013-03-22 14:53:00
8:53 AM,48.9,25.0,39,30.09,10.0,NW,10.4,-,N/A,,Clear,320,2013-03-22 15:53:00
9:53 AM,54.0,24.1,31,30.10,10.0,NNW,17.3,25.3,N/A,,Clear,330,2013-03-22 16:53:00
10:53 AM,57.9,21.9,25,30.11,10.0,NNW,20.7,25.3,N/A,,Clear,330,2013-03-22 17:53:00
11:53 AM,61.0,21.0,21,30.10,10.0,NW,21.9,31.1,N/A,,Clear,320,2013-03-22 18:53:00
12:53 PM,63.0,19.9,19,30.08,10.0,NNW,15.0,32.2,N/A,,Clear,330,2013-03-22 19:53:00
1:53 PM,63.0,19.0,18,30.06,10.0,NNW,25.3,36.8,N/A,,Clear,340,2013-03-22 20:53:00
2:53 PM,64.9,19.9,18,30.05,10.0,NNW,20.7,31.1,N/A,,Clear,330,2013-03-22 21:53:00
3:53 PM,64.0,15.1,15,30.03,10.0,NNW,26.5,32.2,N/A,,Clear,330,2013-03-22 22:53:00
4:53 PM,64.9,19.9,18,30.04,10.0,NNW,17.3,24.2,N/A,,Clear,330,2013-03-22 23:53:00
5:53 PM,63.0,19.0,18,30.02,10.0,NNW,15.0,26.5,N/A,,Clear,340,2013-03-23 00:53:00
6:53 PM,61.0,21.9,22,30.03,10.0,NNW,10.4,-,N/A,,Clear,340,2013-03-23 01:53:00
7:53 PM,57.0,23.0,27,30.04,10.0,NW,6.9,-,N/A,,Clear,320,2013-03-23 02:53:00
8:53 PM,54.0,23.0,30,30.05,10.0,NNW,8.1,-,N/A,,Clear,330,2013-03-23 03:53:00
9:53 PM,54.0,25.0,33,30.07,10.0,NNW,12.7,-,N/A,,Clear,330,2013-03-23 04:53:00
10:53 PM,54.0,24.1,31,30.06,10.0,NW,15.0,-,N/A,,Clear,320,2013-03-23 05:53:00
11:53 PM,53.6,23.0,30,30.06,10.0,North,-9999.0,-,N/A,,Clear,0,2013-03-23 06:53:00